Weather WX

World > North America > United States > New York

Hancock, New York Regional Weather

Lat: 41.95N, Lon: 75.28W
Wx Zone: NYZ057
Warning FLW WEATHER ALERT - (More Info. Click Here) Warning
Feedback

Hancock, NY Regional Weather

Expires:201907190900;;290832
ASUS41 KBGM 190810
RWRBGM

REGIONAL WEATHER ROUNDUP
NATIONAL WEATHER SERVICE BINGHAMTON NY
400 AM EDT FRI JUL 19 2019

Note: "fair" indicates few or no clouds below 12,000 feet with no
significant weather and/or obstructions to visibility.

* = Station(s) that does not report precipitation, such as rain, 
snow, etc, also no thunder or fog.


NYZ009-015>018-022>025-036-037-044>046-055>057-062-190900
...Central New York...
  
CITY           SKY/WX    TMP DP  RH WIND       PRES   REMARKS
Binghamton     FAIR      69  68  96 S7        29.93F                  
Cortland       FAIR      64  64 100 CALM      29.90F                  
Dansville      FAIR      71  68  90 SE9       29.87F                  
Elmira         FAIR      67  67 100 CALM      29.89F FOG              
Endicott       PTSUNNY   68  68 100 CALM      29.90S                  
Ithaca         FAIR      71  71 100 SE6       29.90F                  
Hamilton       CLOUDY    70  70 100 S6        29.90S                  
Hornell        CLEAR     66  66 100 CALM      29.94S                  
Monticello     CLOUDY    70  70 100 CALM      29.96F FOG              
Norwich        CLOUDY    70  70 100 S3        29.91F                  
Oneonta        CLOUDY    68  68 100 SW5       29.94S                  
Penn Yan       FAIR      73  69  87 S8        29.87F                  
Rome           MOCLDY    71  69  93 E6        29.87S                  
Seneca Falls   MOSUNNY   72  68  88 S8        29.84F                  
Sidney         FOG       68  68 100 CALM      29.92R VSB 1/2          
Skaneateles    PTSUNNY   73  72  94 SW6       29.87F                  
Syracuse       FAIR      70  67  90 E3        29.84F                  
$$
 

SKY/WX - Weather  TMP - Temperature  DP - Dew Point  RH - Relative Humidity
WIND - Wind Direction/Speed PRES - Barometric Pressure VSB - Visibility
WCI - Wind Chill Index E13G22 Wind - East Wind 13 mph/Gusts of 22 mph